Location: Lane
(33.5226°N, 79.8788°W)
Time: 17:20:59
(UTC+00:00)

Transit 2A - Pass Details

Date: 30 September 2022
Orbit: 598 x 959 km, 66.7° (Epoch: 06 December)

Event Time Altitude Azimuth Distance (km) Brightness Sun altitude
Rises 05:33:34 0° 241° (WSW) 2,952 - -58.8°
Reaches altitude 10° 05:36:30 10° 260° (W) 1,998 - -58.6°
Maximum altitude 05:39:37 18° 305° (NW) 1,495 - -58.5°
Drops below altitude 10° 05:42:39 10° 350° (N) 1,945 - -58.3°
Sets 05:45:29 0° 9° (N) 2,844 - -58.2°
